Elephant Butte, NM

2:42 AM MST on December 11, 2016 (GMT -0700)
Truth Or Consequences Municipal

Weather History for KTCS - October, 2011

Change the Weather History Date:

Thursday, October 13, 2011

  Actual Average Record
Temperature  
Mean Temperature 66 °F -  
Max Temperature 81 °F 76 °F 87 °F (1998)
Min Temperature 51 °F 48 °F 35 °F (1997)
Degree Days  
Heating Degree Days 0    
Month to date heating degree days 43  
Since 1 July heating degree days 43  
Cooling Degree Days 1    
Month to date cooling degree days 13  
Year to date cooling degree days 2110  
Growing Degree Days 16 (Base 50)    
Moisture  
Dew Point 29 °F    
Average Humidity 29    
Maximum Humidity 44    
Minimum Humidity 14    
Precipitation  
Precipitation 0.00 in - 0.15 in (2004)
Month to date precipitation 0.62  
Year to date precipitation 5.04  
Sea Level Pressure  
Sea Level Pressure 29.91 in    
Wind  
Wind Speed 6 mph (WNW)    
Max Wind Speed 15 mph    
Max Gust Speed 20 mph    
Visibility 10 miles    
Events      
T = Trace of Precipitation, MM = Missing Value Source: NWS Daily Summary

Daily Weather History Graph

Daily Weather History Graph

Search for Another Location

Airport or City:

Trip Planner

Search our weather history database for the weather conditions in past years. The results will help you decide how hot, cold, wet, or windy it might be!

Date:

Astronomy

Oct. 13, 2011 Rise Set
Actual Time 7:11 AM MDT 6:38 PM MDT
Civil Twilight 6:46 AM MDT 7:03 PM MDT
Nautical Twilight 6:18 AM MDT 7:31 PM MDT
Astronomical Twilight 5:49 AM MDT 8:00 PM MDT
Moon 7:24 PM MDT (10/13) 8:38 AM MDT (10/13)
Length of Visible Light 12h 16m
Length of Day
11h 26m
Full, 98% of the Moon is Illuminated
Oct 13
Full
Oct 19
Last Quarter
Oct 26
New
Nov 2
First Quarter
Nov 10
Full

Hourly Weather History & Observations

Time (MDT) Temp. Dew Point Humidity Pressure Visibility Wind Dir Wind Speed Gust Speed Precip Events Conditions
12:53 AM 55.9 °F 32.0 °F 40% 29.95 in 10.0 mi WNW 8.1 mph - N/A   Clear
1:53 AM 55.0 °F 30.9 °F 40% 29.96 in 10.0 mi WNW 9.2 mph - N/A   Clear
2:53 AM 53.1 °F 30.9 °F 43% 29.96 in 10.0 mi NNW 3.5 mph - N/A   Clear
3:53 AM 54.0 °F 30.0 °F 40% 29.95 in 10.0 mi NNW 6.9 mph - N/A   Clear
4:53 AM 52.0 °F 30.0 °F 43% 29.96 in 10.0 mi WNW 5.8 mph - N/A   Clear
5:53 AM 52.0 °F 30.0 °F 43% 29.97 in 10.0 mi NW 6.9 mph - N/A   Clear
6:53 AM 51.1 °F 28.9 °F 43% 29.99 in 10.0 mi NW 10.4 mph - N/A   Clear
7:53 AM 53.1 °F 28.9 °F 40% 30.00 in 10.0 mi NW 6.9 mph - N/A   Clear
8:53 AM 62.1 °F 30.0 °F 30% 30.01 in 10.0 mi North 3.5 mph - N/A   Clear
9:53 AM 66.9 °F 28.0 °F 23% 30.00 in - North 4.6 mph - N/A   Clear
10:53 AM 71.1 °F 28.9 °F 21% 29.99 in 10.0 mi Calm Calm - N/A   Clear
11:53 AM 73.0 °F 28.0 °F 19% 29.97 in 10.0 mi Calm Calm - N/A   Clear
12:53 PM 75.0 °F 28.9 °F 18% 29.92 in 10.0 mi Variable 4.6 mph - N/A   Clear
1:53 PM 78.1 °F 27.0 °F 15% 29.88 in 10.0 mi SSW 8.1 mph - N/A   Clear
2:53 PM 79.0 °F 28.0 °F 15% 29.85 in 10.0 mi Variable 4.6 mph 16.1 mph N/A   Clear
3:53 PM 80.1 °F 28.0 °F 15% 29.83 in 10.0 mi South 8.1 mph - N/A   Clear
4:53 PM 81.0 °F 27.0 °F 14% 29.81 in 10.0 mi South 9.2 mph - N/A   Clear
5:53 PM 80.1 °F 26.1 °F 14% 29.81 in 10.0 mi South 10.4 mph - N/A   Clear
6:53 PM 75.9 °F 26.1 °F 16% 29.83 in 10.0 mi South 4.6 mph - N/A   Clear
7:53 PM 73.0 °F 27.0 °F 18% 29.84 in 10.0 mi SSE 3.5 mph - N/A   Clear
8:53 PM 72.0 °F 25.0 °F 17% 29.84 in 10.0 mi Calm Calm - N/A   Clear
9:53 PM 68.0 °F 26.1 °F 21% 29.84 in 10.0 mi Calm Calm - N/A   Clear
10:53 PM 62.1 °F 30.0 °F 30% 29.86 in 10.0 mi NW 6.9 mph - N/A   Clear
11:53 PM 59.0 °F 28.9 °F 32% 29.86 in 10.0 mi WNW 6.9 mph - N/A   Clear